TimeEST,TemperatureF,Dew PointF,Humidity,Sea Level PressureIn,VisibilityMPH,Wind Direction,Wind SpeedMPH,Gust SpeedMPH,PrecipitationIn,Events,Conditions,WindDirDegrees,DateUTC
12:54 AM,28.9,16.0,58,30.21,10.0,Calm,Calm,-,N/A,,Clear,0,2014-03-05 05:54:00
1:54 AM,28.9,15.1,56,30.20,10.0,Calm,Calm,-,N/A,,Clear,0,2014-03-05 06:54:00
2:54 AM,28.9,16.0,58,30.19,10.0,Calm,Calm,-,N/A,,Clear,0,2014-03-05 07:54:00
3:54 AM,28.9,16.0,58,30.18,10.0,Calm,Calm,-,N/A,,Clear,0,2014-03-05 08:54:00
4:54 AM,28.9,14.0,54,30.19,10.0,NNW,3.5,-,N/A,,Clear,340,2014-03-05 09:54:00
5:54 AM,28.0,14.0,56,30.20,10.0,NNW,4.6,-,N/A,,Clear,330,2014-03-05 10:54:00
6:54 AM,27.0,15.1,61,30.21,10.0,Calm,Calm,-,N/A,,Clear,0,2014-03-05 11:54:00
7:54 AM,28.9,17.1,61,30.21,10.0,Calm,Calm,-,N/A,,Clear,0,2014-03-05 12:54:00
8:54 AM,32.0,17.1,54,30.21,10.0,Calm,Calm,-,N/A,,Clear,0,2014-03-05 13:54:00
9:54 AM,36.0,17.1,46,30.21,10.0,Calm,Calm,-,N/A,,Clear,0,2014-03-05 14:54:00
10:54 AM,39.0,19.9,46,30.21,10.0,Calm,Calm,-,N/A,,Clear,0,2014-03-05 15:54:00
11:54 AM,43.0,23.0,45,30.20,10.0,Variable,4.6,-,N/A,,Clear,0,2014-03-05 16:54:00
12:54 PM,44.1,24.1,45,30.18,10.0,Calm,Calm,-,N/A,,Clear,0,2014-03-05 17:54:00
1:54 PM,46.0,25.0,44,30.15,10.0,ESE,5.8,-,N/A,,Clear,120,2014-03-05 18:54:00
2:54 PM,48.0,25.0,41,30.13,10.0,NNE,5.8,-,N/A,,Clear,30,2014-03-05 19:54:00
3:54 PM,48.9,23.0,36,30.13,10.0,NNE,5.8,-,N/A,,Clear,30,2014-03-05 20:54:00
4:54 PM,48.0,23.0,37,30.14,10.0,ENE,6.9,-,N/A,,Clear,60,2014-03-05 21:54:00
5:54 PM,46.0,21.9,39,30.16,10.0,ENE,6.9,-,N/A,,Clear,60,2014-03-05 22:54:00
6:54 PM,42.1,23.0,47,30.18,10.0,ESE,5.8,-,N/A,,Clear,120,2014-03-05 23:54:00
7:54 PM,39.9,21.9,49,30.24,10.0,East,3.5,-,N/A,,Clear,90,2014-03-06 00:54:00
8:54 PM,37.0,21.0,52,30.24,10.0,NE,4.6,-,N/A,,Clear,50,2014-03-06 01:54:00
9:54 PM,36.0,19.0,50,30.27,10.0,NE,4.6,-,N/A,,Clear,40,2014-03-06 02:54:00
10:54 PM,35.1,18.0,50,30.30,10.0,Calm,Calm,-,N/A,,Clear,0,2014-03-06 03:54:00
11:54 PM,34.0,17.1,50,30.30,10.0,NE,5.8,-,N/A,,Clear,50,2014-03-06 04:54:00